Hilo, HI

3:18 AM HST on May 26, 2017 (GMT -1000)
Hilo International

Weather History for PHTO - April, 2014

Change the Weather History Date:

Wednesday, April 23, 2014

  Actual Average Record
Temperature  
Mean Temperature 74 °F 72 °F  
Max Temperature 82 °F 79 °F 86 °F (1997)
Min Temperature 65 °F 66 °F 61 °F (1991)
Degree Days  
Heating Degree Days 0 0  
Month to date heating degree days 0 0  
Since 1 July heating degree days 0 0  
Cooling Degree Days 9 7  
Month to date cooling degree days 193 161  
Year to date cooling degree days 887 742  
Growing Degree Days 22 (Base 50)    
Moisture  
Dew Point 66 °F    
Average Humidity 80    
Maximum Humidity 93    
Minimum Humidity 67    
Precipitation  
Precipitation 0.03 in 0.36 in 9.66 in (1971)
Month to date precipitation 11.02 9.21  
Year to date precipitation 37.98 41.46  
Snow  
Snow 0.00 in - - ()
Month to date snowfall 0.0  
Since 1 July snowfall 0.0  
Snow Depth 0.00 in    
Sea Level Pressure  
Sea Level Pressure 30.08 in    
Wind  
Wind Speed 8 mph (WSW)    
Max Wind Speed 17 mph    
Max Gust Speed 22 mph    
Visibility 10 miles    
Events Rain    
T = Trace of Precipitation, MM = Missing Value Source: NWS Daily Summary

Daily Weather History Graph

Daily Weather History Graph

Search for Another Location

Airport or City:

Trip Planner

Search our weather history database for the weather conditions in past years. The results will help you decide how hot, cold, wet, or windy it might be!

Date:

Astronomy

Apr. 23, 2014 Rise Set
Actual Time 5:56 AM HST 6:40 PM HST
Civil Twilight 5:33 AM HST 7:03 PM HST
Nautical Twilight 5:07 AM HST 7:30 PM HST
Astronomical Twilight 4:39 AM HST 7:57 PM HST
Moon 1:48 AM HST (4/23) 1:45 PM HST (4/23)
Length of Visible Light 13h 29m
Length of Day
12h 44m
Waning Crescent, 32% of the Moon is Illuminated
Apr 23
Waning Crescent
Apr 28
New
May 6
First Quarter
May 14
Full
May 21
Last Quarter

Hourly Weather History & Observations

Time (HST) Temp. Heat Index Dew Point Humidity Pressure Visibility Wind Dir Wind Speed Gust Speed Precip Events Conditions
12:53 AM 68.0 °F - 66.0 °F 93% 30.09 in 10.0 mi WSW 5.8 mph - N/A   Scattered Clouds
1:41 AM 68.0 °F - 66.0 °F 93% 30.08 in 10.0 mi WSW 5.8 mph - N/A   Mostly Cloudy
1:53 AM 68.0 °F - 64.9 °F 90% 30.07 in 10.0 mi SW 6.9 mph - N/A   Mostly Cloudy
2:00 AM 68.0 °F - 64.9 °F 90% 30.07 in 10.0 mi WSW 6.9 mph - N/A   Scattered Clouds
2:53 AM 66.9 °F - 64.0 °F 90% 30.05 in 10.0 mi WSW 6.9 mph - N/A   Scattered Clouds
3:53 AM 66.9 °F - 63.0 °F 87% 30.04 in 10.0 mi WSW 8.1 mph - 0.00 in   Overcast
4:53 AM 66.9 °F - 59.0 °F 76% 30.05 in 10.0 mi WSW 9.2 mph - 0.00 in   Overcast
5:03 AM 66.0 °F - 60.1 °F 81% 30.05 in 7.0 mi WSW 6.9 mph - 0.00 in Rain Rain
5:53 AM 64.9 °F - 62.1 °F 90% 30.06 in 10.0 mi SW 6.9 mph - 0.03 in   Mostly Cloudy
6:53 AM 66.9 °F - 64.9 °F 93% 30.08 in 10.0 mi WSW 6.9 mph - N/A   Mostly Cloudy
7:09 AM 68.0 °F - 66.0 °F 93% 30.09 in 10.0 mi WSW 5.8 mph - N/A   Mostly Cloudy
7:53 AM 70.0 °F - 66.0 °F 87% 30.09 in 10.0 mi SW 4.6 mph - N/A   Mostly Cloudy
8:53 AM 75.0 °F - 68.0 °F 79% 30.10 in 10.0 mi WSW 4.6 mph - 0.00 in   Mostly Cloudy
9:53 AM 78.1 °F - 68.0 °F 71% 30.10 in 10.0 mi North 4.6 mph - N/A   Mostly Cloudy
10:53 AM 80.1 °F 82.7 °F 68.0 °F 67% 30.10 in 10.0 mi NE 12.7 mph - N/A   Scattered Clouds
11:53 AM 79.0 °F - 66.9 °F 66% 30.09 in 10.0 mi East 11.5 mph - N/A   Mostly Cloudy
12:53 PM 79.0 °F - 68.0 °F 69% 30.07 in 10.0 mi NE 10.4 mph - N/A   Mostly Cloudy
1:53 PM 80.1 °F 82.7 °F 68.0 °F 67% 30.05 in 10.0 mi ENE 13.8 mph - N/A   Mostly Cloudy
2:53 PM 81.0 °F 83.8 °F 68.0 °F 65% 30.04 in 10.0 mi NE 13.8 mph - N/A   Partly Cloudy
3:53 PM 79.0 °F - 69.1 °F 72% 30.03 in 10.0 mi ENE 12.7 mph - N/A   Mostly Cloudy
4:53 PM 77.0 °F - 66.9 °F 71% 30.04 in 10.0 mi East 12.7 mph - N/A   Mostly Cloudy
5:53 PM 75.9 °F - 68.0 °F 76% 30.06 in 10.0 mi East 9.2 mph - N/A   Overcast
6:53 PM 73.0 °F - 70.0 °F 90% 30.07 in 10.0 mi East 9.2 mph - 0.00 in   Overcast
7:53 PM 73.0 °F - 69.1 °F 87% 30.09 in 10.0 mi ESE 4.6 mph - N/A   Mostly Cloudy
8:53 PM 73.9 °F - 68.0 °F 82% 30.12 in 10.0 mi Calm Calm - N/A   Scattered Clouds
9:53 PM 73.9 °F - 66.9 °F 79% 30.13 in 10.0 mi North 3.5 mph - N/A   Scattered Clouds
10:04 PM 73.0 °F - 69.1 °F 87% 30.14 in 10.0 mi WNW 4.6 mph - N/A   Mostly Cloudy
10:12 PM 73.0 °F - 68.0 °F 84% 30.14 in 10.0 mi WNW 4.6 mph - N/A   Mostly Cloudy
10:53 PM 71.1 °F - 68.0 °F 90% 30.14 in 10.0 mi WSW 4.6 mph - N/A   Mostly Cloudy
11:50 PM 71.6 °F - 66.2 °F 83% 30.13 in 10.0 mi WSW 4.6 mph - N/A   Overcast
11:53 PM 71.1 °F - 66.0 °F 84% 30.12 in 10.0 mi WSW 3.5 mph - N/A   Overcast